STARLINK-1036, 44741

Orbit data source: Space-Track

STARLINK-1036, 44741 is a payload satellite owned by SpaceX/Seattle (US) in LEO that was launched on Mon, 11 Nov 2019 UTC via an FALCON 9 launch vehicle from the Air Force Eastern Test Range (AFETR). Payload-class satellites include a variety of spacecraft equipped with specific instruments for various scientific and technological missions. These include communications satellites like Starlink; space stations such as the ISS; scientific satellites like the Hubble; Earth observation satellites from companies like Planet Labs, Umbra, and HawkEye 360; GPS; miniature CubeSats for education and research; and military/defense satellites.

Loading next visibility...
Identifier
44741, 2019-074AE
Orbit
LEO
Last TLE update
15 hours ago
Origin
Manufacturer
SpaceX/Seattle
Mission
Operational Commercial Communications
Bus & Motor
STARLINK, Unknown motor
Mass
260 kg wet, ~248 kg dry
Launch date (UTC)
2019-11-11 (6 years ago)
Launch vehicle
FALCON 9
Launch site
Air Force Eastern Test Range (AFETR)
Object type
Payload
Rocket body
Debris
Shape & HBR
Box + 1 Pan, 8.86 m
Radar Cross Section
13.562 m², Large (>1 m²)

Expand to show TLE details & history

TLE from 15 hours ago
0 STARLINK-1036
1 44741U 19074AE  25175.02758506  .00007848  00000-0  54562-3 0  9996
2 44741  53.0512 287.7995 0002395  90.1349 269.9914 15.06371201309659
Epoch: 2025-06-24T00:39Z
TLE epoch observation values (Epoch: 2025-06-24T00:39:43.349Z)
Latitude
-0.00004°
Longitude
5.43945°
Altitude
548.179 km
Speed
7.589 km/s
True Right ascension
19h 11m 11s
True Declination
0° 00' 00"
Sunlit
Object was in full shadow at epoch
Visualization orbit readout
Latitude
-7.81686°
Longitude
-171.50461°
Altitude
549.712 km
Speed
7.588 km/s
Apparent Right ascension
10h 14m 13s
Apparent Declination
-37° 18' 39"
Sunlit
Object is in daylight
Visualization observer readout
Local Sidereal Time
03:01:36
Azimuth
112.036° ESE
Elevation
-35.38°
Doppler factor
1
Orbital elements
Apogee altitude
549.23 km
Perigee altitude
545.912 km
Semi-major axis
6,925.708 km
Eccentricity
0.00024
Inclination
53.0512°
RAAN
287.7995°
Arg. of periapsis
90.1349°
True anomaly
Unknown
Mean anomaly
269.9914°
Eccentric anomaly
Unknown
Mean motion
3.76571 °/min
Orbital period
95.6 mins
BSTAR
0.00054562
Loading maneuver chart data...
Loading SW <> Apogee altitude chart data...

STARLINK-1036 Visibility forecast

Observer location: undefined°, undefined°

Span
Click to sort rows by Start time (UTC) header in descending order
Start Az.
Max El. time (UTC)
Max El. Az.
Max El.
End time (UTC)
End Az.
7 mins2025-06-24 17:04:52.638Z310.638° NW2025-06-24 17:08:52.638Z111.945° ESE44.217°2025-06-24 17:11:52.638Z128.853° SE
6 mins2025-06-25 10:17:52.638Z240.351° WSW2025-06-25 10:20:52.638Z337.871° N43.092°2025-06-25 10:23:52.638Z44.452° NE
4 mins2025-06-25 15:20:52.638Z351.01° N2025-06-25 15:22:52.638Z34.588° NE21.695°2025-06-25 15:24:52.638Z70.163° E
|